Blacksburg, VA

6:23 AM EDT on May 20, 2018 (GMT -0400)
Virginia Tech

Weather History for KBCB - March, 2013

Change the Weather History Date:

Sunday, March 17, 2013

  Actual Average Record
Temperature  
Mean Temperature 43 °F 42 °F  
Max Temperature 53 °F 54 °F 72 °F (2012)
Min Temperature 32 °F 30 °F 10 °F (1970)
Degree Days  
Heating Degree Days 22 23  
Month to date heating degree days 482 434  
Since 1 July heating degree days 4342 4482  
Cooling Degree Days 0 0  
Month to date cooling degree days 0 0  
Year to date cooling degree days 0 0  
Moisture  
Dew Point 44 °F    
Average Humidity 90    
Maximum Humidity 100    
Minimum Humidity 80    
Precipitation  
Precipitation 0.48 in 0.13 in 1.65 in (1973)
Month to date precipitation 2.05 1.87  
Year to date precipitation 11.15 7.76  
Snow  
Snow 0.00 in - - ()
Month to date snowfall 0.5  
Since 1 July snowfall 18.1  
Snow Depth 0.00 in    
Sea Level Pressure  
Sea Level Pressure 30.03 in    
Wind  
Wind Speed 6 mph (East)    
Max Wind Speed 9 mph    
Max Gust Speed 9 mph    
Visibility 5 miles    
Events Fog , Rain , Snow    
T = Trace of Precipitation, MM = Missing Value Source: NWS Daily Summary

Daily Weather History Graph

Daily Weather History Graph

Search for Another Location

Airport or City:

Astronomy

Mar. 17, 2013 Rise Set
Actual Time 7:29 AM EDT 7:30 PM EDT
Civil Twilight 7:03 AM EDT 7:56 PM EDT
Nautical Twilight 6:33 AM EDT 8:27 PM EDT
Astronomical Twilight 6:02 AM EDT 8:57 PM EDT
Moon 10:48 AM EDT (3/17) 12:30 AM EDT (3/17)
Length of Visible Light 12h 53m
Length of Day
12h 01m
Waxing Crescent, 31% of the Moon is Illuminated
Mar 17
Waxing Crescent
Mar 19
First Quarter
Mar 27
Full
Apr 3
Last Quarter
Apr 10
New

Hourly Weather History & Observations

Time (EDT) Temp. Windchill Dew Point Humidity Pressure Visibility Wind Dir Wind Speed Gust Speed Precip Events Conditions
12:15 AM 55.4 °F - 51.8 °F 88% 29.90 in 10.0 mi WNW 8.1 mph - N/A   Clear
12:35 AM 57.2 °F - 51.8 °F 82% 29.90 in 10.0 mi WNW 9.2 mph - N/A   Clear
12:55 AM 57.2 °F - 51.8 °F 82% 29.90 in 10.0 mi WNW 8.1 mph - N/A   Clear
1:15 AM 55.4 °F - 51.8 °F 88% 29.91 in 10.0 mi WNW 9.2 mph - N/A   Clear
1:35 AM 55.4 °F - 51.8 °F 88% 29.90 in 10.0 mi WNW 6.9 mph - N/A   Scattered Clouds
1:55 AM 53.6 °F - 51.8 °F 94% 29.91 in 10.0 mi West 5.8 mph - N/A   Clear
2:15 AM 53.6 °F - 51.8 °F 94% 29.91 in 10.0 mi West 4.6 mph - N/A   Clear
2:35 AM 51.8 °F - 50.0 °F 94% 29.91 in 10.0 mi NW 8.1 mph - N/A   Clear
2:55 AM 51.8 °F - 50.0 °F 94% 29.92 in 10.0 mi WNW 4.6 mph - N/A   Clear
3:15 AM 53.6 °F - 50.0 °F 88% 29.93 in 10.0 mi West 5.8 mph - N/A   Scattered Clouds
3:35 AM 51.8 °F - 50.0 °F 94% 29.94 in 10.0 mi Calm Calm - N/A   Scattered Clouds
3:55 AM 51.8 °F - 50.0 °F 94% 29.94 in 10.0 mi Calm Calm - N/A   Overcast
4:15 AM 51.8 °F - 48.2 °F 88% 29.93 in 7.0 mi WNW 4.6 mph - N/A   Overcast
4:35 AM 51.8 °F - 48.2 °F 88% 29.93 in 7.0 mi West 3.5 mph - N/A   Overcast
4:55 AM 50.0 °F - 48.2 °F 94% 29.94 in 7.0 mi WNW 3.5 mph - N/A   Scattered Clouds
5:15 AM 48.2 °F - 48.2 °F 100% 29.94 in 7.0 mi Calm Calm - N/A   Mostly Cloudy
5:35 AM 48.2 °F - 48.2 °F 100% 29.94 in 7.0 mi NW 4.6 mph - N/A   Mostly Cloudy
5:55 AM 48.2 °F - 48.2 °F 100% 29.95 in 5.0 mi Calm Calm - N/A   Overcast
6:15 AM 48.2 °F - 48.2 °F 100% 29.96 in 5.0 mi Calm Calm - N/A   Overcast
6:35 AM 48.2 °F - 48.2 °F 100% 29.97 in 7.0 mi Calm Calm - N/A   Overcast
6:55 AM 48.2 °F - 48.2 °F 100% 29.98 in 7.0 mi Calm Calm - N/A   Overcast
7:15 AM 48.2 °F - 48.2 °F 100% 29.98 in 5.0 mi Calm Calm - N/A   Overcast
7:35 AM 48.2 °F - 48.2 °F 100% 29.99 in 5.0 mi Calm Calm - N/A   Overcast
7:55 AM 48.2 °F - 48.2 °F 100% 29.98 in 5.0 mi Calm Calm - N/A Rain Light Rain
8:15 AM 48.2 °F - 48.2 °F 100% 29.99 in 4.0 mi Calm Calm - N/A   Overcast
8:35 AM 48.2 °F - 48.2 °F 100% 30.02 in 2.5 mi Calm Calm - N/A Rain Light Rain
8:55 AM 48.2 °F - 48.2 °F 100% 30.03 in 3.0 mi Calm Calm - 0.01 in Rain Light Rain
9:15 AM 48.2 °F - 48.2 °F 100% 30.03 in 3.0 mi Calm Calm - N/A   Drizzle
9:35 AM 50.0 °F - 50.0 °F 100% 30.03 in 5.0 mi Calm Calm - N/A   Overcast
9:55 AM 48.2 °F - 48.2 °F 100% 30.04 in 3.0 mi Calm Calm - N/A   Overcast
10:15 AM 48.2 °F - 48.2 °F 100% 30.03 in 0.5 mi ESE 5.8 mph - N/A Fog Fog
10:35 AM 46.4 °F 42.9 °F 46.4 °F 100% 30.05 in 0.5 mi ESE 6.9 mph - N/A Fog Fog
10:55 AM 44.6 °F 40.2 °F 44.6 °F 100% 30.04 in 1.2 mi ESE 8.1 mph - N/A   Drizzle
11:15 AM 44.6 °F 40.7 °F 44.6 °F 100% 30.06 in 1.0 mi ESE 6.9 mph - N/A   Light Drizzle
11:35 AM 44.6 °F 40.2 °F 44.6 °F 100% 30.06 in 1.0 mi ESE 8.1 mph - N/A   Drizzle
11:55 AM 44.6 °F 40.7 °F 44.6 °F 100% 30.07 in 0.8 mi ESE 6.9 mph - N/A   Light Drizzle
12:15 PM 44.6 °F 39.7 °F 44.6 °F 100% 30.07 in 0.5 mi ESE 9.2 mph - 0.01 in   Drizzle
12:35 PM 44.6 °F 40.2 °F 44.6 °F 100% 30.07 in 1.0 mi ESE 8.1 mph - 0.01 in   Drizzle
12:55 PM 42.8 °F 37.5 °F 42.8 °F 100% 30.07 in 1.8 mi East 9.2 mph - 0.01 in   Light Drizzle
1:15 PM 42.8 °F 38.0 °F 42.8 °F 100% 30.06 in 2.0 mi ESE 8.1 mph - N/A   Light Drizzle
1:35 PM 42.8 °F 36.6 °F 42.8 °F 100% 30.06 in 2.5 mi ESE 11.5 mph - N/A   Overcast
1:55 PM 42.8 °F 38.0 °F 42.8 °F 100% 30.05 in 1.8 mi ESE 8.1 mph - N/A   Overcast
2:15 PM 42.8 °F 39.3 °F 42.8 °F 100% 30.05 in 1.8 mi ESE 5.8 mph - N/A   Overcast
2:35 PM 42.8 °F 38.6 °F 42.8 °F 100% 30.05 in 2.0 mi ESE 6.9 mph - N/A   Overcast
2:55 PM 42.8 °F 38.6 °F 42.8 °F 100% 30.04 in 2.0 mi ESE 6.9 mph - N/A   Overcast
3:15 PM 42.8 °F 39.3 °F 42.8 °F 100% 30.04 in 0.8 mi ESE 5.8 mph - N/A   Overcast
3:35 PM 42.8 °F 38.0 °F 42.8 °F 100% 30.04 in 1.0 mi East 8.1 mph - N/A   Overcast
3:55 PM 41.0 °F 35.8 °F 41.0 °F 100% 30.05 in 1.8 mi East 8.1 mph - N/A   Overcast
4:15 PM 41.0 °F 35.2 °F 41.0 °F 100% 30.04 in 1.0 mi East 9.2 mph - N/A   Overcast
4:35 PM 41.0 °F 35.2 °F 41.0 °F 100% 30.05 in 0.8 mi ESE 9.2 mph - N/A   Overcast
4:55 PM 39.2 °F 33.0 °F 39.2 °F 100% 30.05 in 0.5 mi East 9.2 mph - N/A Fog Fog
5:15 PM 39.2 °F 33.0 °F 39.2 °F 100% 30.05 in 0.2 mi East 9.2 mph - N/A Fog Fog
5:35 PM 39.2 °F 33.0 °F 39.2 °F 100% 30.05 in 0.2 mi East 9.2 mph - N/A   Overcast
5:55 PM 39.2 °F 33.0 °F 39.2 °F 100% 30.07 in 0.2 mi East 9.2 mph - N/A   Overcast
6:15 PM 37.4 °F 30.8 °F 37.4 °F 100% 30.07 in 0.2 mi East 9.2 mph - N/A Rain Light Rain
6:35 PM 37.4 °F 30.8 °F 37.4 °F 100% 30.07 in 1.0 mi East 9.2 mph - N/A   Light Drizzle
6:55 PM 37.4 °F 31.4 °F 37.4 °F 100% 30.07 in 2.0 mi East 8.1 mph - N/A   Light Drizzle
7:15 PM 37.4 °F 32.1 °F 37.4 °F 100% 30.07 in 2.5 mi ENE 6.9 mph - 0.01 in Rain Rain
7:35 PM 37.4 °F 30.3 °F 37.4 °F 100% 30.08 in 5.0 mi ENE 10.4 mph - 0.02 in Rain Light Rain
7:55 PM 37.4 °F 32.1 °F 37.4 °F 100% 30.09 in 3.0 mi ENE 6.9 mph - 0.07 in Rain Rain
8:15 PM 37.4 °F 30.8 °F 37.4 °F 100% 30.09 in 2.5 mi East 9.2 mph - 0.10 in Snow Light Snow
8:35 PM 37.4 °F 33.8 °F 37.4 °F 100% 30.10 in 4.0 mi East 4.6 mph - 0.17 in Snow Snow
8:55 PM 37.4 °F 32.8 °F 37.4 °F 100% 30.11 in 4.0 mi ENE 5.8 mph - 0.20 in Rain Rain
9:15 PM 37.4 °F 30.8 °F 37.4 °F 100% 30.12 in 4.0 mi East 9.2 mph - 0.05 in Rain Light Rain
9:35 PM 35.6 °F 30.7 °F 35.6 °F 100% 30.13 in 7.0 mi East 5.8 mph - 0.09 in Rain Rain
9:55 PM 37.4 °F 30.8 °F 37.4 °F 100% 30.13 in 7.0 mi East 9.2 mph - 0.14 in Rain Light Rain
10:15 PM 35.6 °F 28.6 °F 35.6 °F 100% 30.13 in 10.0 mi East 9.2 mph - 0.01 in Rain Rain
10:35 PM 35.6 °F 29.9 °F 35.6 °F 100% 30.14 in 7.0 mi East 6.9 mph - 0.02 in Rain Rain
10:55 PM 35.6 °F 29.2 °F 35.6 °F 100% 30.14 in 10.0 mi East 8.1 mph - 0.03 in   Light Drizzle
11:15 PM 35.6 °F 30.7 °F 35.6 °F 100% 30.14 in 10.0 mi East 5.8 mph 9.2 mph N/A Rain Light Rain
11:35 PM 35.6 °F 29.2 °F 35.6 °F 100% 30.15 in 7.0 mi East 8.1 mph - N/A   Light Drizzle
11:55 PM 35.6 °F 30.7 °F 35.6 °F 100% 30.15 in 7.0 mi East 5.8 mph - N/A   Overcast